AirNav   Duncan Aviation - Near you to keep you flying
 
 508 users online  

TS96 El Campo Airpark
El Campo, Texas, USA

GOING TO EL CAMPO?


FAA INFORMATION EFFECTIVE 26 JANUARY 2023

Location

FAA Identifier: TS96
Lat/Long: 29-16-00.8980N 096-19-30.8760W
29-16.014967N 096-19.514600W
29.2669161,-96.3252433
(estimated)
Elevation: 105 ft. / 32 m (estimated)
Variation: 06E (1985)
From city: 4 miles NW of EL CAMPO, TX
Time zone: UTC -6 (UTC -5 during Daylight Saving Time)
Zip code: 77437

Airport Operations

Airport use: Private use. Permission required prior to landing
Activation date: 05/1961
Control tower: no
ARTCC: HOUSTON CENTER
FSS: MONTGOMERY COUNTY FLIGHT SERVICE STATION
Attendance: DAYLIGHT HOURS
Wind indicator: yes
Segmented circle: no
Lights: FOR RWY LGTS CALL 713-543-5272.

Airport Communications

WX AWOS-3 at ARM (9 nm E): 118.475 (979-532-2791)
WX AWOS-3PT at ELA (20 nm N): 128.475 (979-234-2665)

Nearby radio navigation aids

VOR radial/distance  VOR name  Freq  Var
PSXr350/30.2PALACIOS VORTAC117.3008E

Airport Services

Fuel available: 100
Parking: hangars
Airframe service: NONE
Powerplant service: NONE
Bottled oxygen: NONE
Bulk oxygen: NONE

Runway Information

Runway 17/35

Dimensions: 2450 x 60 ft. / 747 x 18 m
Surface: asphalt, in fair condition
Weight bearing capacity: 
Single wheel: 4.0
Runway edge lights: low intensity
Runway edge markings: OUTLINED WITH WHITE TIRES.
RUNWAY 17  RUNWAY 35
Traffic pattern: leftleft
Markings: NSTD, in good conditionNSTD, in good condition
Runway end identifier lights: nono
Obstructions: tree, 400 ft. from runway, 7:1 slope to clear
ROAD 27'; 4' FENCE AT 55'; SIDE FENCE AT 85'.
none
4' FENCE 85' FROM CNTRLN.

Airport Ownership and Management from official FAA records

Ownership: Privately-owned
Owner: ALAN THORNTON
P.O. BOX 288
EL CAMPO, TX 77437
Phone 979-543-5272
Manager: ALAN THORNTON
BOX 288
EL CAMPO, TX 77437
Phone 979-543-5272

Airport Operational Statistics

Aircraft based on the field: 16
Single engine airplanes: 16
    
Aircraft operations: avg 125/week
77% local general aviation
23% transient general aviation

Additional Remarks

LOOSE GRAVEL & GRASS ENCROACHMENT.
FOR CD CTC HOUSTON ARTCC AT 281-230-5622.

Instrument Procedures

There are no published instrument procedures at TS96.

Some nearby airports with instrument procedures:

KARM - Wharton Regional Airport (9 nm E)
KELA - Eagle Lake Airport (20 nm N)
26R - Jackson County Airport (21 nm SW)
KBYY - Bay City Regional Airport (30 nm SE)
KPSX - Palacios Municipal Airport (33 nm S)
 
Loc | Ops | Rwys | IFR | FBO | Links
Com | Nav | Svcs | Stats | Notes
Area around TS96 (El Campo Airpark)
 
Road maps at: MapQuest Bing Google
 
Aerial photo
No photo
 
Sectional chart

 
Airport distance calculator
Flying to El Campo Airpark? Find the distance to fly.

From to TS96

Sunrise and sunset
Times for 30-Jan-2023
 Local
(UTC-6)
 Zulu
(UTC)
Morning civil twilight06:5212:52
Sunrise07:1713:17
Sunset18:0100:01
Evening civil twilight18:2600:26

Current date and time
Zulu (UTC)  30-Jan-2023 08:02:40
Local (UTC-6)  30-Jan-2023 02:02:40
 
METAR
KARM 
9nm E 
300755Z AUTO 36009G15KT 4SM BR OVC005 08/08 A3009 RMK AO2 T00800080 TSNO
TAF
KVCT 
40nm SW 
292027Z 2920/3018 19010KT 6SM BR VCSH OVC010 TEMPO 2920/2922 3SM -RA FM300200 02010KT 6SM BR OVC007 TEMPO 3012/3016 02012KT 4SM BR OVC004
KSGR 
41nm NE 
292109Z 2921/3018 20013G26KT P6SM VCSH BKN025 BKN070 FM292200 25010KT 5SM -RA SCT015 BKN025 FM300200 34008KT 4SM BR VCSH BKN007 OVC015 FM300600 36008KT 4SM BR OVC006 FM301300 01007KT 4SM BR SCT003 OVC005
KLBX 
46nm E 
300528Z 3006/3106 19010KT 6SM BR VCSH OVC007 FM300900 VRB05KT 3SM BR OVC004 FM301300 36009KT 6SM BR VCSH OVC006 FM310000 01012KT 6SM BR OVC007 FM310400 01010KT P6SM OVC003 AMD NOT SKED
NOTAMs
Click for the latest NOTAMs
NOTAMs are issued by the DoD/FAA and will open in a separate window not controlled by AirNav.

 

 
 

Would you like to see your business listed on this page?

 If your business provides an interesting product or service to pilots, flight crews, aircraft, or users of the El Campo Airpark, you should consider listing it here.  To start the listing process, click on the button below
 
Add a business
 

Other Pages about El Campo Airpark

Update a link
 
Copyright © AirNav, LLC. All rights reserved. Privacy Policy  Contact